GALAXY 30 (G-30)

Last updated on Thu Nov 21 2024 00:02:44 GMT+0000 (Coordinated Universal Time)

1 46114U 20056C 24324.58470728 .00000038 00000+0 00000+0 0 9994 2 46114 0.0158 335.4298 0002379 263.2689 265.9128 1.00270951 15647
UTC large
Height (km)
Speed (km/s)
/
Latitude / Longitude
Inclination (degrees)
Orbital Period (minutes)
Azimuth
Elevation
Range (km)
Doppler Factor

Next 0 passes for location: London (51.5072 / 0.1276)

Sorry there are no passes over London.